Location: Huntsville
(41.2590°N, 111.7678°W)
Time: 23:08:12
(UTC+00:00)

SR - Pass Details

Date: 14 June 2021
Orbit: 577 x 878 km, 66.7° (Epoch: 29 July)

Event Time Altitude Azimuth Distance (km) Brightness Sun altitude
Rises 10:09:58 0° 330° (NNW) 3,303 ? -15.3°
Reaches altitude 10° 10:12:29 10° 331° (NNW) 2,324 ? -15.0°
Maximum altitude 10:17:48 86° 61° (ENE) 729 ? -14.3°
Drops below altitude 10° 10:22:37 10° 150° (SSE) 2,107 ? -13.8°
Sets 10:24:49 0° 151° (SSE) 2,973 ? -13.5°
